sat.trackr.live / text

‹ back to catalog

STARLINK-31441

NORAD 60091 · 2024-117A

PAYLOAD ACTIVE UNKNOWN

§ Identity

Operator
Country
US
Launch date
2024-06-23
Launch site
AFETR
Launch vehicle
Mass (kg)
RCS (m²)

Purposes: comms

External: N2YO · Heavens-Above · Gunter

§ Orbital elements

Epoch: 2026-05-25T01:58:06.405312Z

Period
94.11 min
Inclination
53.1588°
Eccentricity
0.0000945
Mean motion
15.30198520 rev/d
Perigee alt
474.6 km
Apogee alt
475.9 km
Semi-major
6,853.4 km
B*
1.6492e-4
RAAN
42.2062°
Arg perigee
92.8994°
Mean anomaly
267.2115°
Rev number
10,858

§ Raw data

STARLINK-314411 60091U 24117A   26145.08201858  .00004528  00000+0  16492-3 0  99942 60091  53.1588  42.2062 0000945  92.8994 267.2115 15.30198520108583

JSON: /api/v1/satellites/60091 · /tle

For live sub-satellite position, see the globe view (requires WebGL).

§ Visibility from observer

Set your observer location to see the next 7 days of passes ≥ 10°. The values pass through the URL so the page stays shareable.

No JS? Fill the form by hand. The geolocation button needs JavaScript.